• Em Portugal
  • Lista de países
  • Para 7 dias
  • Temperatura da água
  • Mapas de satélite
  • Mapa do tempo
  • Widgets de tempo
  • user-avatar
    Iniciar Sessão

    Previsão horária em Starica

    Hoje, 17 Julho, Terça-feira

    Tempo Temperatura Precipitação Vento Pressão Humidade
    00:00 +20°C° 0,2 mm 3 m/s 737 mmHg 94%
    01:00 +19°C° 0,2 mm 3 m/s 737 mmHg 95%
    02:00 +19°C° 0 mm 2 m/s 736 mmHg 97%
    03:00 +19°C° 0,5 mm 2 m/s 736 mmHg 96%
    04:00 +19°C° 0,5 mm 3 m/s 736 mmHg 96%
    05:00 +20°C° 0,5 mm 3 m/s 736 mmHg 96%
    06:00 +21°C° 0,4 mm 4 m/s 736 mmHg 93%
    07:00 +22°C° 0,4 mm 4 m/s 736 mmHg 91%
    08:00 +25°C° 0,4 mm 5 m/s 736 mmHg 88%
    09:00 +26°C° 0,9 mm 5 m/s 736 mmHg 85%
    10:00 +26°C° 0,9 mm 6 m/s 735 mmHg 82%
    11:00 +27°C° 0,9 mm 6 m/s 735 mmHg 78%
    12:00 +27°C° 1,2 mm 6 m/s 735 mmHg 79%
    13:00 +27°C° 1,2 mm 6 m/s 735 mmHg 80%
    14:00 +27°C° 1,2 mm 6 m/s 735 mmHg 81%
    15:00 +27°C° 0,6 mm 5 m/s 735 mmHg 83%
    16:00 +26°C° 0,6 mm 5 m/s 735 mmHg 84%
    17:00 +26°C° 0,6 mm 4 m/s 735 mmHg 85%
    18:00 +25°C° 0,3 mm 4 m/s 735 mmHg 88%
    19:00 +24°C° 0,3 mm 3 m/s 735 mmHg 91%
    20:00 +22°C° 0,3 mm 3 m/s 734 mmHg 94%
    21:00 +21°C° 0,2 mm 3 m/s 734 mmHg 95%
    22:00 +21°C° 0,2 mm 3 m/s 734 mmHg 95%
    23:00 +20°C° 0,2 mm 3 m/s 734 mmHg 96%

    Amanhã, 18 Julho, Quarta-feira

    Tempo Temperatura Precipitação Vento Pressão Humidade
    00:00 +20°C° 0,1 mm 3 m/s 734 mmHg 97%
    01:00 +20°C° 0,1 mm 3 m/s 734 mmHg 97%
    02:00 +20°C° 0,1 mm 3 m/s 734 mmHg 97%
    03:00 +20°C° 0 mm 4 m/s 734 mmHg 97%
    04:00 +20°C° 0 mm 4 m/s 734 mmHg 97%
    05:00 +20°C° 0 mm 4 m/s 734 mmHg 97%
    06:00 +20°C° 0 mm 4 m/s 734 mmHg 95%
    07:00 +21°C° 0 mm 5 m/s 734 mmHg 94%
    08:00 +21°C° 0 mm 5 m/s 734 mmHg 92%
    09:00 +21°C° 0,2 mm 5 m/s 734 mmHg 91%
    10:00 +21°C° 0,2 mm 5 m/s 733 mmHg 90%
    11:00 +22°C° 0,2 mm 5 m/s 733 mmHg 89%
    12:00 +22°C° 0,3 mm 6 m/s 733 mmHg 88%
    13:00 +22°C° 0,3 mm 6 m/s 733 mmHg 88%
    14:00 +23°C° 0,3 mm 6 m/s 733 mmHg 87%
    15:00 +23°C° 0,1 mm 6 m/s 733 mmHg 86%
    16:00 +23°C° 0,1 mm 6 m/s 733 mmHg 86%
    17:00 +23°C° 0,1 mm 5 m/s 733 mmHg 85%
    18:00 +22°C° 0 mm 5 m/s 733 mmHg 88%
    19:00 +21°C° 0 mm 4 m/s 733 mmHg 91%
    20:00 +20°C° 0 mm 3 m/s 733 mmHg 94%
    21:00 +20°C° 0 mm 3 m/s 733 mmHg 95%
    22:00 +19°C° 0 mm 3 m/s 733 mmHg 96%
    23:00 +19°C° 0 mm 3 m/s 733 mmHg 97%

    Depois de amanhã, 19 Julho, Quinta-feira

    Tempo Temperatura Precipitação Vento Pressão Humidade
    00:00 +19°C° 0 mm 3 m/s 733 mmHg 97%
    01:00 +19°C° 0 mm 3 m/s 733 mmHg 97%
    02:00 +19°C° 0 mm 3 m/s 733 mmHg 97%
    03:00 +19°C° 0,1 mm 3 m/s 733 mmHg 97%
    04:00 +19°C° 0,1 mm 3 m/s 733 mmHg 97%
    05:00 +19°C° 0,1 mm 3 m/s 734 mmHg 96%
    06:00 +20°C° 0,1 mm 3 m/s 734 mmHg 93%
    07:00 +21°C° 0,1 mm 3 m/s 734 mmHg 90%
    08:00 +22°C° 0,1 mm 3 m/s 734 mmHg 86%
    09:00 +22°C° 0,3 mm 3 m/s 734 mmHg 86%
    10:00 +22°C° 0,3 mm 3 m/s 734 mmHg 86%
    11:00 +22°C° 0,3 mm 3 m/s 734 mmHg 86%
    12:00 +24°C° 0,3 mm 3 m/s 734 mmHg 83%
    13:00 +25°C° 0,3 mm 2 m/s 734 mmHg 80%
    14:00 +26°C° 0,3 mm 2 m/s 734 mmHg 77%
    15:00 +25°C° 0,4 mm 2 m/s 734 mmHg 78%
    16:00 +25°C° 0,4 mm 2 m/s 734 mmHg 80%
    17:00 +25°C° 0,4 mm 2 m/s 734 mmHg 81%
    18:00 +24°C° 0,2 mm 2 m/s 734 mmHg 85%
    19:00 +23°C° 0,2 mm 1 m/s 734 mmHg 89%
    20:00 +21°C° 0,2 mm 1 m/s 734 mmHg 93%
    21:00 +21°C° 0 mm 1 m/s 734 mmHg 94%
    22:00 +21°C° 0 mm 1 m/s 734 mmHg 95%
    23:00 +20°C° 0 mm 1 m/s 734 mmHg 96%

    20 Julho, Sexta-feira

    Tempo Temperatura Precipitação Vento Pressão Humidade
    00:00 +20°C° 0 mm 1 m/s 734 mmHg 96%
    01:00 +20°C° 0 mm 1 m/s 735 mmHg 96%
    02:00 +19°C° 0 mm 1 m/s 735 mmHg 97%
    03:00 +20°C° 0 mm 1 m/s 735 mmHg 97%
    04:00 +20°C° 0 mm 1 m/s 735 mmHg 96%
    05:00 +20°C° 0 mm 1 m/s 735 mmHg 96%
    06:00 +21°C° 0 mm 1 m/s 735 mmHg 93%
    07:00 +23°C° 0 mm 2 m/s 736 mmHg 90%
    08:00 +24°C° 0 mm 2 m/s 736 mmHg 86%
    09:00 +25°C° 0,5 mm 3 m/s 736 mmHg 83%
    10:00 +26°C° 0,5 mm 3 m/s 736 mmHg 79%
    11:00 +27°C° 0,5 mm 3 m/s 736 mmHg 75%
    12:00 +27°C° 1,1 mm 3 m/s 736 mmHg 74%
    13:00 +28°C° 1,1 mm 4 m/s 736 mmHg 73%
    14:00 +28°C° 1,1 mm 4 m/s 736 mmHg 72%
    15:00 +28°C° 0,6 mm 3 m/s 736 mmHg 74%
    16:00 +28°C° 0,6 mm 3 m/s 736 mmHg 75%
    17:00 +28°C° 0,6 mm 3 m/s 736 mmHg 77%
    18:00 +26°C° 0 mm 3 m/s 737 mmHg 81%
    19:00 +25°C° 0 mm 2 m/s 737 mmHg 85%
    20:00 +23°C° 0 mm 2 m/s 737 mmHg 89%
    21:00 +23°C° 0 mm 2 m/s 737 mmHg 91%
    22:00 +21°C° 0 mm 2 m/s 737 mmHg 92%
    23:00 +20°C° 0 mm 2 m/s 737 mmHg 93%

    21 Julho, Sábado

    Tempo Temperatura Precipitação Vento Pressão Humidade
    00:00 +20°C° 0 mm 2 m/s 737 mmHg 93%
    01:00 +20°C° 0 mm 2 m/s 737 mmHg 94%
    02:00 +20°C° 0 mm 2 m/s 738 mmHg 94%
    03:00 +20°C° 0 mm 2 m/s 738 mmHg 94%
    04:00 +20°C° 0 mm 2 m/s 738 mmHg 94%
    05:00 +20°C° 0 mm 2 m/s 738 mmHg 94%
    06:00 +21°C° 0 mm 2 m/s 738 mmHg 89%
    07:00 +24°C° 0 mm 2 m/s 738 mmHg 84%
    08:00 +26°C° 0 mm 2 m/s 738 mmHg 79%
    09:00 +27°C° 0 mm 2 m/s 738 mmHg 74%
    10:00 +28°C° 0 mm 2 m/s 738 mmHg 68%
    11:00 +29°C° 0 mm 2 m/s 738 mmHg 63%
    12:00 +29°C° 0,3 mm 2 m/s 738 mmHg 63%
    13:00 +29°C° 0,3 mm 2 m/s 738 mmHg 62%
    14:00 +30°C° 0,3 mm 2 m/s 738 mmHg 62%
    15:00 +29°C° 0,2 mm 2 m/s 738 mmHg 66%
    16:00 +29°C° 0,2 mm 2 m/s 738 mmHg 71%
    17:00 +28°C° 0,2 mm 2 m/s 738 mmHg 75%
    18:00 +27°C° 0,2 mm 2 m/s 738 mmHg 79%
    19:00 +25°C° 0,2 mm 2 m/s 738 mmHg 84%
    20:00 +24°C° 0,2 mm 2 m/s 738 mmHg 88%
    21:00 +23°C° 0,1 mm 2 m/s 737 mmHg 90%
    22:00 +22°C° 0,1 mm 1 m/s 737 mmHg 91%
    23:00 +22°C° 0,1 mm 1 m/s 737 mmHg 92%

    22 Julho, Domingo

    Tempo Temperatura Precipitação Vento Pressão Humidade
    00:00 +21°C° 0,1 mm 1 m/s 737 mmHg 93%
    01:00 +21°C° 0,1 mm 1 m/s 737 mmHg 93%
    02:00 +21°C° 0,1 mm 1 m/s 737 mmHg 94%
    03:00 +20°C° 0 mm 2 m/s 737 mmHg 94%
    04:00 +20°C° 0 mm 2 m/s 737 mmHg 94%
    05:00 +20°C° 0 mm 2 m/s 737 mmHg 93%
    06:00 +21°C° 0,1 mm 2 m/s 737 mmHg 90%
    07:00 +24°C° 0,1 mm 3 m/s 737 mmHg 86%
    08:00 +25°C° 0,1 mm 3 m/s 737 mmHg 83%
    09:00 +26°C° 0,3 mm 3 m/s 737 mmHg 77%
    10:00 +27°C° 0,3 mm 3 m/s 737 mmHg 72%
    11:00 +29°C° 0,3 mm 3 m/s 736 mmHg 67%
    12:00 +29°C° 1,1 mm 3 m/s 736 mmHg 68%
    13:00 +29°C° 1,1 mm 3 m/s 736 mmHg 70%
    14:00 +29°C° 1,1 mm 3 m/s 736 mmHg 72%
    15:00 +28°C° 1 mm 3 m/s 736 mmHg 75%
    16:00 +28°C° 1 mm 3 m/s 736 mmHg 79%
    17:00 +27°C° 1 mm 3 m/s 736 mmHg 82%
    18:00 +26°C° 0,5 mm 3 m/s 736 mmHg 85%
    19:00 +25°C° 0,5 mm 3 m/s 736 mmHg 88%
    20:00 +24°C° 0,5 mm 2 m/s 736 mmHg 92%
    21:00 +23°C° 0,4 mm 2 m/s 736 mmHg 92%
    22:00 +23°C° 0,4 mm 2 m/s 736 mmHg 93%
    23:00 +21°C° 0,4 mm 2 m/s 736 mmHg 94%
    Mostrar mais